Airfield :
LOGIN :

Register | Disclaimer

   EN    FR    IT 

 










Legend :    VFR   Marginal VFR   IFR   Intensive IFR   Very Intensive IFR
Visi :
Ceiling :
>= 8 km
>= 3000ft
5 to 8 km
1000 to 3000 ft
1500m to 5 km
500 to 1000 ft
800 to 1500m
200 to 500 ft
< 800m
< 200 ft
Symbols :   Thunderstorms  Fog  Heavy snow  Heavy precipitations  Wind > 20 kt
SIGMETs :     Misc.  Thunderstorms  Icing  Turbulence  Mountain Waves  Volcanic Ashes







- Airport Elevation : 525 ft
- IATA code : VAF
- Download approach charts


LFLU - Valence

CURRENT METAR :
  • 181300Z AUTO 21015KT CAVOK 29/15 Q1017

EXPIRED METARs :
  • 181230Z AUTO 23013KT CAVOK 29/15 Q1017
  • 181200Z AUTO 21013KT 180V250 CAVOK 28/15 Q1017
  • 181130Z AUTO 21012KT 180V260 CAVOK 28/15 Q1017
  • 181100Z AUTO 22011KT 190V250 CAVOK 28/16 Q1018
  • 181030Z AUTO 21012KT 180V250 CAVOK 27/16 Q1018

TAF N/A
No reported NOTAMs for that airfield.
1 SIGMET reported for the Marseille FIR (LFMM) :
 
Embedded thunderstorms
LFMM SIGMET 5 VALID 181200/181400 LFPW
LFMM MARSEILLE FIR/UIR EMBD TS OBS WI N4015 E00430 - N4145 E00430 - N4100 E00745 - N4015 E00430 TOP FL400 MOV N 10KT NC=



MET'MAP, your aeronautical weather chart ! - Copyright ORBIFLY December 2007 - Disclaimer

ORBIFLY MET'MAP TEAM :

Programming & Development : Alexandra Zaïnal
Concept & Development : Baudouin d'Aumeries
Co-Development & Prog : Marc-Olivier Méhu
Technical & hardware support : Manuel Goepfert

Contact : metmap@orbifly.com




SOURCES & CREDITS :

   NOAA